Weather in Lido Di Camaiore

Italy     43°54′22″N   10°13′36″E
temp.,
°C
wind,
m/s
gust,
m/s
humid.,
%
clouds,
%
prec.,
mm/h
press.,
hPa
HPBL,
m
24 january, sun
sun2401:00+9wsw81576100 5.1 9971647
04:00+8wsw3783100 0.8 995802
07:00+8w2483100 2.9 993559
10:00+8ene1278100 0.4 993310
13:00+8nne227291 0.7 994673
16:00+8nne236033 0.1 996682
19:00+4nne235821 0.1 998109
22:00+3ne11350 0.0 100153
25 january, mon
mon2501:00+3e12360 0.0 100034
04:00+5sw156556 0.1 999440
07:00+6w477577 0.9 998434
10:00+7wnw1365100 0.0 999416
13:00+9w344650 0.1 9991613
16:00+8nw243629 0.0 10001193
19:00+4n244514 0.0 1003306
22:00+3nne24390 0.0 1006227
26 january, tue
tue2601:00+2ne22360 0.0 100854
04:00+2nne22330 0.0 101056
07:00+2nne22320 0.0 101248
10:00+5nne12290 0.0 1015190
13:00+8wsw12290 0.0 1016878
16:00+6wsw12400 0.0 1016310
19:00+3ne11450 0.0 101742
22:00+3ne22410 0.0 101839
27 january, wed
wed2701:00+2ne11400 0.0 101836
04:00+2ne124743 0.0 101736
07:00+2ne125572 0.0 101644
10:00+5ene015289 0.0 1017146
13:00+7sw225474 0.0 1017689
16:00+6sw126564 0.0 1017506
19:00+4nnw017574 0.0 101858
22:00+3nne127923 0.0 102045
28 january, thu
thu2801:00+3ne127959 0.0 102039
04:00+3ene227761 0.0 101939
07:00+4ene127774 0.0 101952
10:00+5sse1287100 0.0 1018164
13:00+6s1286100 0.2 1016225
16:00+6ne0193100 0.4 101488
19:00+6e1193100 0.6 101447
22:00+7ese1290100 0.1 101340